sat.trackr.live / text

‹ back to catalog

STARLINK-33820

NORAD 63584 · 2025-076R

PAYLOAD ACTIVE UNKNOWN

§ Identity

Operator
Country
US
Launch date
2025-04-14
Launch site
AFETR
Launch vehicle
Mass (kg)
RCS (m²)

Purposes: comms

External: N2YO · Heavens-Above · Gunter

§ Orbital elements

Epoch: 2026-05-24T23:35:40.221024Z

Period
94.27 min
Inclination
43.0012°
Eccentricity
0.0001263
Mean motion
15.27596983 rev/d
Perigee alt
482.1 km
Apogee alt
483.9 km
Semi-major
6,861.1 km
B*
5.3943e-4
RAAN
250.3764°
Arg perigee
295.7240°
Mean anomaly
64.3481°
Rev number
6,350

§ Raw data

STARLINK-338201 63584U 25076R   26144.98310441  .00014619  00000+0  53943-3 0  99902 63584  43.0012 250.3764 0001263 295.7240  64.3481 15.27596983 63501

JSON: /api/v1/satellites/63584 · /tle

For live sub-satellite position, see the globe view (requires WebGL).

§ Visibility from observer

Set your observer location to see the next 7 days of passes ≥ 10°. The values pass through the URL so the page stays shareable.

No JS? Fill the form by hand. The geolocation button needs JavaScript.